When you browse on this site, cookies collect data to enhance your experience and personalize the content and advertising you see.
Visit our Privacy Policy to learn more. By continuing to use the site, you agree to this use of cookies and data.
  • In Romania
  • List of Countries
  • For 7 days
  • Water Temperature
  • Weather Map
  • Weather Widgets
  • user-avatar
    Login

    Hourly Weather Smolan

    Today, 18 September, Wednesday

    Time Temperature Precipitation Wind Pressure Humidity
    00:00 +14°C° 0 mm 1 mps 654 mmHg 55%
    01:00 +14°C° 0 mm 1 mps 654 mmHg 53%
    02:00 +14°C° 0 mm 1 mps 654 mmHg 52%
    03:00 +13°C° 0 mm 1 mps 654 mmHg 52%
    04:00 +13°C° 0 mm 1 mps 654 mmHg 51%
    05:00 +13°C° 0 mm 1 mps 654 mmHg 51%
    06:00 +15°C° 0 mm 1 mps 654 mmHg 48%
    07:00 +18°C° 0 mm 1 mps 655 mmHg 44%
    08:00 +20°C° 0 mm 1 mps 656 mmHg 41%
    09:00 +22°C° 0 mm 1 mps 657 mmHg 36%
    10:00 +24°C° 0 mm 2 mps 658 mmHg 31%
    11:00 +26°C° 0 mm 2 mps 658 mmHg 26%
    12:00 +27°C° 0 mm 3 mps 658 mmHg 25%
    13:00 +27°C° 0 mm 3 mps 658 mmHg 25%
    14:00 +27°C° 0 mm 3 mps 658 mmHg 25%
    15:00 +26°C° 0 mm 3 mps 658 mmHg 30%
    16:00 +24°C° 0 mm 3 mps 657 mmHg 36%
    17:00 +21°C° 0 mm 2 mps 657 mmHg 42%
    18:00 +19°C° 0 mm 2 mps 657 mmHg 48%
    19:00 +17°C° 0 mm 2 mps 656 mmHg 53%
    20:00 +15°C° 0 mm 2 mps 656 mmHg 59%
    21:00 +14°C° 0 mm 2 mps 657 mmHg 60%
    22:00 +13°C° 0 mm 2 mps 657 mmHg 62%
    23:00 +13°C° 0 mm 1 mps 657 mmHg 63%

    Tomorrow, 19 September, Thursday

    Time Temperature Precipitation Wind Pressure Humidity
    00:00 +12°C° 0 mm 1 mps 657 mmHg 66%
    01:00 +11°C° 0 mm 1 mps 657 mmHg 70%
    02:00 +11°C° 0 mm 1 mps 657 mmHg 73%
    03:00 +10°C° 0 mm 1 mps 657 mmHg 76%
    04:00 +10°C° 0 mm 1 mps 657 mmHg 79%
    05:00 +9°C° 0 mm 1 mps 656 mmHg 81%
    06:00 +11°C° 0 mm 1 mps 657 mmHg 76%
    07:00 +12°C° 0 mm 1 mps 658 mmHg 71%
    08:00 +13°C° 0 mm 1 mps 658 mmHg 66%
    09:00 +15°C° 0 mm 1 mps 659 mmHg 60%
    10:00 +17°C° 0 mm 2 mps 659 mmHg 54%
    11:00 +19°C° 0 mm 2 mps 660 mmHg 48%
    12:00 +19°C° 0 mm 2 mps 660 mmHg 49%
    13:00 +19°C° 0 mm 2 mps 659 mmHg 49%
    14:00 +20°C° 0 mm 2 mps 659 mmHg 49%
    15:00 +19°C° 0.2 mm 2 mps 658 mmHg 54%
    16:00 +18°C° 0.2 mm 2 mps 658 mmHg 58%
    17:00 +18°C° 0.2 mm 1 mps 658 mmHg 62%
    18:00 +16°C° 0.2 mm 1 mps 658 mmHg 68%
    19:00 +14°C° 0.2 mm 1 mps 658 mmHg 74%
    20:00 +13°C° 0.2 mm 1 mps 658 mmHg 81%
    21:00 +12°C° 0.5 mm 1 mps 658 mmHg 84%
    22:00 +12°C° 0.5 mm 1 mps 658 mmHg 87%
    23:00 +11°C° 0.5 mm 1 mps 658 mmHg 90%

    Day after tomorrow, 20 September, Friday

    Time Temperature Precipitation Wind Pressure Humidity
    00:00 +11°C° 0.6 mm 1 mps 658 mmHg 91%
    01:00 +10°C° 0.6 mm 1 mps 658 mmHg 92%
    02:00 +10°C° 0.6 mm 1 mps 658 mmHg 92%
    03:00 +10°C° 0 mm 1 mps 658 mmHg 92%
    04:00 +10°C° 0 mm 1 mps 657 mmHg 92%
    05:00 +9°C° 0 mm 1 mps 657 mmHg 91%
    06:00 +10°C° 0 mm 1 mps 658 mmHg 89%
    07:00 +10°C° 0 mm 1 mps 658 mmHg 86%
    08:00 +10°C° 0 mm 1 mps 658 mmHg 83%
    09:00 +12°C° 0 mm 1 mps 659 mmHg 76%
    10:00 +13°C° 0 mm 1 mps 659 mmHg 69%
    11:00 +14°C° 0 mm 1 mps 659 mmHg 62%
    12:00 +15°C° 0.1 mm 1 mps 659 mmHg 59%
    13:00 +15°C° 0.1 mm 2 mps 659 mmHg 57%
    14:00 +16°C° 0.1 mm 2 mps 659 mmHg 54%
    15:00 +16°C° 0.1 mm 2 mps 659 mmHg 53%
    16:00 +15°C° 0.1 mm 2 mps 659 mmHg 52%
    17:00 +15°C° 0.1 mm 1 mps 658 mmHg 51%
    18:00 +13°C° 0 mm 1 mps 658 mmHg 52%
    19:00 +10°C° 0 mm 1 mps 658 mmHg 53%
    20:00 +8°C° 0 mm 1 mps 657 mmHg 54%
    21:00 +7°C° 0 mm 1 mps 658 mmHg 53%
    22:00 +7°C° 0 mm 1 mps 658 mmHg 52%
    23:00 +6°C° 0 mm 1 mps 658 mmHg 51%

    21 September, Saturday

    Time Temperature Precipitation Wind Pressure Humidity
    00:00 +6°C° 0 mm 1 mps 658 mmHg 51%
    01:00 +5°C° 0 mm 1 mps 658 mmHg 51%
    02:00 +5°C° 0 mm 1 mps 658 mmHg 52%
    03:00 +5°C° 0 mm 1 mps 658 mmHg 52%
    04:00 +5°C° 0 mm 1 mps 658 mmHg 53%
    05:00 +4°C° 0 mm 1 mps 658 mmHg 54%
    06:00 +6°C° 0 mm 1 mps 659 mmHg 50%
    07:00 +8°C° 0 mm 1 mps 660 mmHg 46%
    08:00 +10°C° 0 mm 1 mps 661 mmHg 41%
    09:00 +12°C° 0 mm 1 mps 661 mmHg 37%
    10:00 +13°C° 0 mm 1 mps 662 mmHg 34%
    11:00 +15°C° 0 mm 2 mps 663 mmHg 30%
    12:00 +16°C° 0 mm 2 mps 663 mmHg 29%
    13:00 +16°C° 0 mm 2 mps 663 mmHg 28%
    14:00 +17°C° 0 mm 2 mps 662 mmHg 27%
    15:00 +16°C° 0 mm 2 mps 662 mmHg 29%
    16:00 +15°C° 0 mm 2 mps 662 mmHg 31%
    17:00 +15°C° 0 mm 2 mps 661 mmHg 33%
    18:00 +12°C° 0 mm 2 mps 661 mmHg 40%
    19:00 +9°C° 0 mm 2 mps 661 mmHg 46%
    20:00 +7°C° 0 mm 1 mps 660 mmHg 52%
    21:00 +7°C° 0 mm 1 mps 660 mmHg 54%
    22:00 +6°C° 0 mm 1 mps 660 mmHg 57%
    23:00 +5°C° 0 mm 1 mps 660 mmHg 59%

    22 September, Sunday

    Time Temperature Precipitation Wind Pressure Humidity
    00:00 +5°C° 0 mm 1 mps 660 mmHg 63%
    01:00 +4°C° 0 mm 1 mps 660 mmHg 66%
    02:00 +4°C° 0 mm 1 mps 661 mmHg 70%
    03:00 +4°C° 0 mm 1 mps 660 mmHg 71%
    04:00 +3°C° 0 mm 1 mps 660 mmHg 71%
    05:00 +3°C° 0 mm 1 mps 660 mmHg 72%
    06:00 +5°C° 0 mm 1 mps 661 mmHg 65%
    07:00 +7°C° 0 mm 1 mps 661 mmHg 57%
    08:00 +9°C° 0 mm 1 mps 662 mmHg 49%
    09:00 +11°C° 0 mm 1 mps 663 mmHg 44%
    10:00 +13°C° 0 mm 1 mps 663 mmHg 38%
    11:00 +15°C° 0 mm 2 mps 664 mmHg 32%
    12:00 +16°C° 0 mm 2 mps 664 mmHg 31%
    13:00 +17°C° 0 mm 2 mps 663 mmHg 30%
    14:00 +17°C° 0 mm 2 mps 663 mmHg 28%
    15:00 +17°C° 0 mm 2 mps 662 mmHg 30%
    16:00 +16°C° 0 mm 2 mps 661 mmHg 32%
    17:00 +15°C° 0 mm 2 mps 661 mmHg 34%
    18:00 +13°C° 0 mm 1 mps 660 mmHg 39%
    19:00 +10°C° 0 mm 1 mps 659 mmHg 45%
    20:00 +8°C° 0 mm 1 mps 659 mmHg 51%
    21:00 +7°C° 0 mm 1 mps 659 mmHg 52%
    22:00 +7°C° 0 mm 1 mps 658 mmHg 54%
    23:00 +7°C° 0 mm 1 mps 658 mmHg 55%

    23 September, Monday

    Time Temperature Precipitation Wind Pressure Humidity
    00:00 +6°C° 0 mm 1 mps 658 mmHg 57%
    01:00 +6°C° 0 mm 1 mps 658 mmHg 59%
    02:00 +6°C° 0 mm 1 mps 658 mmHg 61%
    03:00 +6°C° 0 mm 1 mps 657 mmHg 62%
    04:00 +6°C° 0 mm 1 mps 657 mmHg 63%
    05:00 +6°C° 0 mm 1 mps 657 mmHg 63%
    06:00 +8°C° 0 mm 1 mps 657 mmHg 57%
    07:00 +9°C° 0 mm 0 mps 658 mmHg 51%
    08:00 +11°C° 0 mm 0 mps 658 mmHg 45%
    09:00 +15°C° 0 mm 1 mps 659 mmHg 40%
    10:00 +18°C° 0 mm 1 mps 659 mmHg 34%
    11:00 +21°C° 0 mm 1 mps 660 mmHg 29%
    12:00 +20°C° 0 mm 2 mps 660 mmHg 28%
    13:00 +21°C° 0 mm 2 mps 659 mmHg 27%
    14:00 +23°C° 0 mm 2 mps 659 mmHg 26%
    15:00 +21°C° 0 mm 2 mps 658 mmHg 30%
    16:00 +20°C° 0 mm 2 mps 657 mmHg 34%
    17:00 +20°C° 0 mm 1 mps 656 mmHg 38%
    18:00 +18°C° 0 mm 1 mps 656 mmHg 45%
    19:00 +14°C° 0 mm 1 mps 655 mmHg 53%
    20:00 +12°C° 0 mm 1 mps 654 mmHg 60%
    21:00 +12°C° 0 mm 1 mps 654 mmHg 60%
    22:00 +12°C° 0 mm 1 mps 654 mmHg 59%
    23:00 +12°C° 0 mm 1 mps 654 mmHg 59%
    Show more